Content
SEND FEEDBACK

Daily
Averages
Monthly
Summary
Canada

QUEBEC CITY, QUEBEC


Home > North America > Canada > Quebec
Elevation: 239 feet     Latitude: 46 48N     Longitude: 071 23W

WEATHER
 
SELECT A DAY
Number of Records: 192,044;   Date Range: 6/30/96 - 7/27/14
 
SHARE

PRINT THIS DATA

[ ← Previous Day ]
WEATHER ALMANAC - OCTOBER 8, 2013
[ Next Day → ]
[ °C ]   °F
We're sorry. There is no daily almanac available for Quebec City, Quebec on October 8, 2013.
WEATHER BY HOUR - OCTOBER 8, 2013
[ °C ]   °F
Local TimeTemperatureDewpointHumidityBarometerVisibilityWind DirectionWind SpeedGust SpeedPrecipitationEventsConditions
1:00 AM55.4 °F48.2 °F77 %29.75 in15.0 miSSW (210°)17.3 mph25.3 mphOvercast
2:00 AM55.0 °F48.0 °F71 %29.74 inSW (230°)11.5 mph
2:00 AM55.4 °F48.2 °F77 %29.76 in15.0 miSW (220°)18.4 mph27.6 mphOvercast
2:37 AM53.6 °F0.0 °F10.0 miSW (220°)19.6 mph33.4 mphRainLight Rain Showers
3:00 AM53.6 °F46.4 °F77 %29.78 in10.0 miWSW (250°)25.3 mph32.2 mphRainLight Rain Showers
3:16 AM51.8 °F0.0 °F10.0 miWSW (250°)19.6 mph26.5 mphOvercast
4:00 AM48.2 °F42.8 °F82 %29.85 in15.0 miWSW (250°)19.6 mph29.9 mphPartly Cloudy
5:00 AM46.4 °F41.0 °F81 %29.93 in15.0 miWSW (250°)16.1 mph23.0 mphMostly Cloudy
5:00 AM47.0 °F41.0 °F73 %29.91 inWest (260°)12.7 mph
6:00 AM46.4 °F37.4 °F71 %29.99 in15.0 miWSW (250°)15.0 mph20.7 mphMostly Cloudy
7:00 AM44.6 °F37.4 °F76 %30.04 in25.0 miWSW (240°)11.5 mph19.6 mphMostly Cloudy
8:00 AM45.0 °F39.0 °F74 %30.07 inWSW (250°)9.2 mph
8:00 AM44.6 °F39.2 °F81 %30.09 in30.0 miWSW (250°)11.5 mphMostly Cloudy
9:00 AM46.4 °F39.2 °F76 %30.13 in30.0 miWest (260°)18.4 mphMostly Cloudy
10:00 AM50.0 °F41.0 °F71 %30.14 in30.0 miWest (260°)16.1 mphScattered Clouds
11:00 AM50.0 °F37.4 °F62 %30.17 in30.0 miWest (270°)17.3 mph26.5 mphScattered Clouds
11:00 AM50.0 °F39.0 °F55 %30.14 inWest (280°)15.0 mph
12:00 PM51.8 °F35.6 °F54 %30.18 in30.0 miWest (270°)17.3 mph24.2 mphScattered Clouds
1:00 PM53.6 °F37.4 °F54 %30.19 in30.0 miWNW (300°)12.7 mph19.6 mphScattered Clouds
2:00 PM54.0 °F36.0 °F40 %30.18 inWest (270°)13.8 mph
2:00 PM55.4 °F37.4 °F51 %30.20 in30.0 miWest (280°)12.7 mph20.7 mphScattered Clouds
3:00 PM55.4 °F35.6 °F47 %30.22 in30.0 miWest (280°)12.7 mph20.7 mphScattered Clouds
4:00 PM55.4 °F35.6 °F47 %30.23 in30.0 miWSW (250°)16.1 mphScattered Clouds
5:00 PM55.4 °F35.6 °F47 %30.25 in30.0 miWSW (250°)12.7 mphPartly Cloudy
5:00 PM55.0 °F36.0 °F37 %30.23 inWest (260°)10.4 mph
6:00 PM50.0 °F35.6 °F58 %30.28 in30.0 miWest (260°)8.1 mphPartly Cloudy
7:00 PM46.4 °F35.6 °F66 %30.31 in15.0 miWest (270°)8.1 mphPartly Cloudy
8:00 PM43.0 °F37.0 °F71 %30.32 inWest (270°)3.5 mph
8:00 PM46.4 °F35.6 °F66 %30.34 in15.0 miWest (270°)5.8 mphPartly Cloudy
9:00 PM42.8 °F35.6 °F76 %30.35 in15.0 miWSW (240°)3.5 mphClear
10:00 PM42.8 °F35.6 °F76 %30.37 in15.0 miCalmClear
11:00 PM36.0 °F35.0 °F95 %30.36 inNW (310°)2.3 mph
11:00 PM37.4 °F33.8 °F87 %30.37 in15.0 miNW (320°)3.5 mphClear
Hourly data recorded from CYQB, located miles away from Quebec City, Quebec







STORIES FROM OUR PARTNERS